Weather History for Rexburg, ID

Change the Weather History Date:

Friday, September 6, 2013

  Actual Average Record
Temperature  
Mean Temperature 71 °F 60 °F  
Max Temperature 86 °F 76 °F 86 °F (2006)
Min Temperature 55 °F 43 °F 35 °F (2010)
Degree Days  
Heating Degree Days 0 6  
Month to date heating degree days 0 31  
Since 1 July heating degree days 0 104  
Cooling Degree Days 6 0  
Month to date cooling degree days 23 5  
Year to date cooling degree days 436 207  
Growing Degree Days 18 (Base 50)    
Moisture  
Dew Point 52 °F    
Average Humidity 58    
Maximum Humidity 83    
Minimum Humidity 33    
Precipitation  
Precipitation T in 0.03 in 0.80 in (2002)
Month to date precipitation 0.13 0.18  
Year to date precipitation 5.41 9.10  
Sea Level Pressure  
Sea Level Pressure 30.01 in    
Wind  
Wind Speed 6 mph (South)    
Max Wind Speed 23 mph    
Max Gust Speed 31 mph    
Visibility 10 miles    
Events Rain    
T = Trace of Precipitation, MM = Missing Value Source: NWS Daily Summary

Daily Weather History Graph

Daily Weather History Graph

Search for Another Location

Airport:

Trip Planner

Search our weather history database for the weather conditions in past years. The results will help you decide how hot, cold, wet, or windy it might be!

Date:

Astronomy

Sep. 06, 2013 Rise Set
Actual Time 6:56 AM MDT 7:53 PM MDT
Civil Twilight 6:27 AM MDT 8:22 PM MDT
Nautical Twilight 5:52 AM MDT 8:57 PM MDT
Astronomical Twilight 5:15 AM MDT 9:33 PM MDT
Moon 8:17 AM MDT (9/6) 8:14 PM MDT (9/6)
Length of Visible Light 13h 55m
Length of Day
12h 56m
New Moon, 2% of the Moon is Illuminated
Sep 6
New Moon
Sep 12
First Quarter
Sep 19
Full
Sep 26
Last Quarter
Oct 4
New

Hourly Weather History & Observations

Time (MDT) Temp. Dew Point Humidity Pressure Visibility Wind Dir Wind Speed Gust Speed Precip Events Conditions
12:53 AM 64.9 °F 55.0 °F 70% 29.99 in 10.0 mi East 4.6 mph - N/A   Clear
1:53 AM 60.1 °F 52.0 °F 75% 29.98 in 10.0 mi NE 6.9 mph - N/A   Clear
2:53 AM 57.9 °F 51.1 °F 78% 29.97 in 10.0 mi NE 6.9 mph - N/A   Clear
3:53 AM 55.9 °F 50.0 °F 80% 29.97 in 10.0 mi Calm Calm - N/A   Clear
4:53 AM 57.0 °F 50.0 °F 77% 29.98 in 10.0 mi Calm Calm - N/A   Clear
5:53 AM 55.9 °F 48.9 °F 77% 29.99 in 10.0 mi Calm Calm - N/A   Clear
6:53 AM 55.9 °F 48.9 °F 77% 30.00 in 10.0 mi NE 3.5 mph - N/A   Clear
7:53 AM 57.0 °F 48.0 °F 72% 30.04 in 10.0 mi NNE 3.5 mph - N/A   Clear
8:53 AM 62.1 °F 51.1 °F 67% 30.05 in 10.0 mi Calm Calm - N/A   Clear
9:53 AM 72.0 °F 52.0 °F 49% 30.05 in 10.0 mi SW 9.2 mph - N/A   Clear
10:53 AM 73.9 °F 55.9 °F 53% 30.05 in 10.0 mi South 6.9 mph - N/A   Clear
11:53 AM 77.0 °F 54.0 °F 45% 30.04 in 10.0 mi SW 6.9 mph - N/A   Clear
12:53 PM 79.0 °F 52.0 °F 39% 30.01 in 10.0 mi SW 11.5 mph - N/A   Clear
1:53 PM 82.9 °F 50.0 °F 32% 29.99 in 10.0 mi SW 12.7 mph 19.6 mph N/A   Clear
2:53 PM 82.9 °F 51.1 °F 33% 29.98 in 10.0 mi SW 13.8 mph - N/A   Clear
3:53 PM 75.0 °F 55.0 °F 50% 30.03 in 10.0 mi South 19.6 mph 31.1 mph N/A   Partly Cloudy
4:53 PM 73.9 °F 48.9 °F 41% 30.00 in 10.0 mi SE 8.1 mph - 0.00 in   Clear
5:53 PM 73.9 °F 50.0 °F 43% 30.00 in 10.0 mi ESE 5.8 mph - N/A   Clear
6:53 PM 73.0 °F 52.0 °F 48% 30.00 in 10.0 mi Variable 3.5 mph - N/A   Clear
7:53 PM 70.0 °F 52.0 °F 53% 30.02 in 10.0 mi Calm Calm - N/A   Clear
8:53 PM 70.0 °F 51.1 °F 51% 30.03 in 10.0 mi SSW 3.5 mph - N/A   Clear
9:53 PM 69.1 °F 53.1 °F 57% 29.99 in 10.0 mi SE 11.5 mph 17.3 mph 0.00 in Rain Light Rain
10:53 PM 66.9 °F 52.0 °F 59% 30.02 in 10.0 mi SSW 3.5 mph - 0.00 in   Clear
11:53 PM 63.0 °F 52.0 °F 67% 30.03 in 10.0 mi NNW 5.8 mph - N/A   Clear